Погода в железнодорожной станции Дикой

Россия / Вологодская область     59°14′42″N   39°29′24″E
темп.,
°C
ветер,
м/с
пор.,
м/с
влажн.,
%
обл.,
%
осадки,
мм/ч
давл.,
гПа
погр.,
м
13 мая, чт
чт1300:00+14в347956 0.0 102266
03:00+12юв249117 0.0 102266
06:00+15юв388483 0.0 1020203
09:00+18юв4868100 0.0 1020568
12:00+20юв586124 0.1 10191296
15:00+23юв574625 0.3 10182310
18:00+21в486553 0.3 1015386
21:00+16юв51382100 4.1 1014467
14 мая, пт
пт1400:00+14ю4895100 1.7 1014463
03:00+11ю399725 1.8 1016323
06:00+11ююз41190100 0.0 1016478
09:00+15ююз5971100 0.0 1017782
12:00+19ююз57535 0.0 10171797
15:00+20юз464579 0.0 10161982
18:00+19юз246066 0.0 1016424
21:00+14юв227939 0.1 101613
15 мая, сб
сб1500:00+12юв3792100 0.1 1015123
03:00+13вюв31098100 2.5 1013352
06:00+14вюв41195100 0.3 1012402
09:00+18ююв51180100 0.3 1010647
12:00+23ю5105599 0.0 10091604
15:00+21ююв61362100 0.6 10081372
18:00+19ююв487690 1.3 1007670
21:00+16юв3692100 3.1 1006151
16 мая, вс
вс1600:00+13ююз413941 0.8 1006408
03:00+13ююз5139646 0.8 1007509
06:00+12юз61194100 0.0 1008587
09:00+13юз499264 0.1 1010552
12:00+17зюз587391 0.1 10111043
15:00+14зюз5991100 1.9 1012481
18:00+15зюз3690100 0.8 1013367
21:00+13з22946 0.8 101313
17 мая, пн
пн1700:00+11зюз22945 0.0 101416
03:00+10з11940 0.0 101610
06:00+13юв1190100 0.0 101764
09:00+17вюв227469 0.0 1017488
12:00+21юв2355100 0.0 10171478
15:00+21ююв3453100 0.0 10161578
18:00+20юв2368100 0.0 101599
21:00+15юв3688100 0.0 101595